[Iaude] MPEC P21: COMET C/2024 O1 (PANSTARRS)
    mpec at cfa.harvard.edu 
    mpec at cfa.harvard.edu
       
    Thu Aug  1 18:18:24 EDT 2024
    
    
  
M.P.E.C. 2024-P21                                Issued 2024 August 1, 22:14 UT
     The Minor Planet Electronic Circulars contain information on unusual
         minor planets, routine data on comets and natural satellites,
         and occasional editorial announcements.  They are published
    on behalf of Division F of the International Astronomical Union by the
          Minor Planet Center, Smithsonian Astrophysical Observatory,
                          Cambridge, MA 02138, U.S.A.
			  
             Prepared using the Tamkin Foundation Computer Network
                              MPC at CFA.HARVARD.EDU
            URL https://www.minorplanetcenter.net/    ISSN 1523-6714
                          COMET C/2024 O1 (PANSTARRS)                           
     R. Weryk reports the discovery of a comet in four 45-second w-band survey
images taken by Pan-STARRS 1 (F51) on Jul. 28 UT, noting a slightly soft 
appearance with respect to the field stars. Weryk confirmed the activity by
CFHT (T14) follow-up images on Jul. 29 UT, noting a condensed 1" coma and
a broad 5" tail at position angle 80 - 180 deg. Prediscovery positions were
reported back to Jun. 2023. Additional reports of cometary features are as
follows:
OC   Date        Reporter           Coma    Tail    PA          Exposures
W84  2023-07-16  S. Deen            2"
W84  2023-07-28  S. Deen            1".9
Observations:
    CK24O010  C2023 06 18.51422720 48 25.027-16 26 47.18         21.71wXEP021F51
    CK24O010  C2023 06 18.53622620 48 24.508-16 26 42.51         21.71wXEP021F51
    CK24O010  C2023 06 18.54724020 48 24.250-16 26 40.30         21.76wXEP021F51
    CK24O010 &C2023 07 16.13855020 35 06.13 -14 56 47.3          21.5 gWEP021W84
    CK24O010 &C2023 07 16.14681620 35 05.85 -14 56 46.0          21.7 gWEP021W84
    CK24O010 &C2023 07 28.16087620 28 19.21 -14 20 57.7          20.7 zWEP021W84
    CK24O010 &C2023 07 28.22169420 28 17.10 -14 20 47.1          20.6 zWEP021W84
    CK24O010  C2023 09 12.25538720 06 42.399-12 14 20.58         21.60wXEP021F51
    CK24O010  C2023 09 12.26941020 06 42.131-12 14 18.38         21.70wXEP021F51
    CK24O010  C2023 09 12.28341620 06 41.884-12 14 16.24         21.73wXEP021F51
    CK24O010  C2023 09 12.29741120 06 41.636-12 14 13.94         21.53wXEP021F51
    CK24O010  C2023 09 15.25736320 05 51.731-12 06 22.11         21.55wXEP021F52
    CK24O010  C2023 09 15.26895320 05 51.534-12 06 20.16         21.50wXEP021F52
    CK24O010  C2023 09 15.28054520 05 51.359-12 06 18.58         21.60wXEP021F52
    CK24O010  C2023 09 15.29218620 05 51.152-12 06 16.37         21.51wXEP021F52
    CK24O010* C2024 07 28.39663021 02 48.522+14 26 10.66         21.04wXEP021F51
    CK24O010  C2024 07 28.41936621 02 47.850+14 26 13.85         21.17wXEP021F51
    CK24O010  C2024 07 28.43073121 02 47.514+14 26 15.72         21.16wXEP021F51
    CK24O010 KC2024 07 29.22918221 02 24.16 +14 28 11.0                VEP021H21
    CK24O010 KC2024 07 29.23197821 02 24.07 +14 28 11.3                VEP021H21
    CK24O010 3C2024 07 29.48139921 02 16.684+14 28 46.96         22.13GVEP021T14
    CK24O010 3C2024 07 29.48260821 02 16.653+14 28 47.07         22.18GVEP021T14
    CK24O010 3C2024 07 29.48381521 02 16.616+14 28 47.24         22.06GVEP021T14
    CK24O010 KC2024 07 29.92275921 02 03.79 +14 29 47.8          21.7 GUEP021L06
    CK24O010 KC2024 07 29.92450721 02 03.71 +14 29 48.1          21.4 GUEP021L06
    CK24O010 1C2024 07 30.63472 21 01 42.82 +14 31 27.2                VEP021Q62
    CK24O010 1C2024 07 30.64195 21 01 42.59 +14 31 28.4          20.9 GVEP021Q62
    CK24O010 KC2024 08 01.19582 21 00 56.87 +14 34 50.7          19.9 GXEP021W62
    CK24O010 KC2024 08 01.21393 21 00 56.32 +14 34 53.0          19.9 GXEP021W62
    CK24O010 KC2024 08 01.23274 21 00 55.75 +14 34 55.5          20.1 GXEP021W62
    CK24O010  C2024 08 01.38277321 00 51.362+14 35 14.73         21.26wXEP021F52
    CK24O010  C2024 08 01.39394621 00 51.010+14 35 15.72         20.57wXEP021F52
    CK24O010  C2024 08 01.40515521 00 50.681+14 35 17.56         20.93wXEP021F52
    CK24O010  C2024 08 01.41633721 00 50.357+14 35 18.82         21.20wXEP021F52
Observer details:
F51 Pan-STARRS 1, Haleakala.  Observers J. Bulger, T. Lowe, A. Schultz, I.
    Smith, J. Herman, P. Minguez.  Measurers K. Chambers, S. Chastel, T. de
    Boer, J. Fairlamb, H. Gao, M. Huber, C.-C. Lin, E. Magnier, Y.
    Ramanjooloo, R. Wainscoat, R. Weryk.  1.8-m Ritchey-Chretien + CCD.
F52 Pan-STARRS 2, Haleakala.  Observers J. Bulger, T. Lowe, A. Schultz, I.
    Smith, J. Herman, P. Minguez.  Measurers K. Chambers, S. Chastel, T. de
    Boer, J. Fairlamb, H. Gao, M. Huber, C.-C. Lin, E. Magnier, Y.
    Ramanjooloo, R. Wainscoat, R. Weryk.  1.8-m Ritchey-Chretien + CCD.
H21 Astronomical Research Observatory, Westfield.  Observer R. Holmes.
    Measurers T. Linder, R. Holmes.  0.76-m f/3.0 astrograph + CCD.
L06 Sormano 2 Observatory, Bellagio Via Lattea.  Observers E. Colzani, L.
    Iachelini.  Measurer P. Sicoli.  0.5-m f/6.8 reflector + CCD.
Q62 iTelescope Observatory, Siding Spring.  Observer H. Sato.  0.51-m f/6.8
    astrograph + CCD.
T14 Canada-France-Hawaii Telescope, Maunakea.  Observers R. Wainscoat, J.
    Silva, H. Flewelling.  Measurers R. Weryk, R. Wainscoat.  3.6-m f/4.1
    reflector + CCD.
W62 Comet Hunter Observatory2, New Ringgold.  Observer J. Maikner.  0.30-m
    f/3.8 Riccardi-Honders + CCD.
W84 Cerro Tololo-DECam.  Observers N. Sherman, C. Y. Tan, C. Tolley.  Measurer
    S. Deen.  4.0-m reflector + CCD.
Orbital elements:
    C/2024 O1 (PANSTARRS)                                                       
Epoch 2024 Oct. 17.0 TT = JDT 2460600.5                                         
T 2023 Jan. 28.99496 TT                                 Rudenko                 
q   6.6081594            (2000.0)            P               Q                  
z  -0.0001926      Peri.  349.92414     +0.46594233     +0.51890317             
 +/-0.0000064      Node   303.33541     -0.74034162     -0.21493626             
e   1.0012729      Incl.   59.07319     -0.48455344     +0.82737047             
>From 34 observations 2023 June 18-2024 Aug. 1, mean residual 0".2.              
                                                                                
Ephemeris:
Date    TT    R. A. (2000) Decl.     Delta      r    Elong.  Phase   m1    m2
2024 07 02    21 14 28.7 +12 53 10   6.7742  7.4520   128.7     6.1  21.4
...
2024 07 17    21 08 12.2 +13 52 55   6.6953  7.4975   139.5     5.0  21.4
...
2024 07 25    21 04 27.2 +14 17 24   6.6751  7.5221   144.2     4.5  21.4
...
2024 07 31    21 01 32.1 +14 32 15   6.6707  7.5408   146.8     4.2  21.4
2024 08 01    21 01 02.6 +14 34 26   6.6709  7.5439   147.2     4.2  21.4
2024 08 02    21 00 33.1 +14 36 32   6.6714  7.5470   147.5     4.1  21.4
...
2024 08 08    20 57 35.8 +14 47 22   6.6799  7.5658   148.8     4.0  21.4
...
2024 08 16    20 53 42.7 +14 57 19   6.7064  7.5911   148.9     4.0  21.4
...
2024 08 31    20 46 58.2 +15 03 32   6.8020  7.6393   143.7     4.5  21.5
M. P. C. Staff               (C) Copyright 2024 MPC           M.P.E.C. 2024-P21
    
    
More information about the Iaude
mailing list